Weather observations for the past three days for
Copper Harbor
Imperial (Metric)
Date Time (edt) Wind (mph) Vis. (mi.) Weather Sky Cond. Temperature (ºF) Relative Humidity Wind Chill (°F) Heat Index (°F) Pressure Precipitation (in)
Air Dwpt 6 hour altimeter (in) sea level (mb) 1 hr 3 hr 6 hr
Max. Min.
06 11:51 N 15 0.00 NULL NULL 37 28.9 73% 29 29.88 1012.7
06 10:51 N 12 G 18 0.00 NULL NULL 37 28 70% 30 29.87 1012.4
06 09:51 N 9 G 16 0.00 NULL NULL 36 28 73% 30 29.86 1012.1
06 08:51 NW 9 G 17 0.00 NULL NULL 36 28 73% 30 29.85 1011.7
06 07:51 NW 8 0.00 NULL NULL 35.1 27 36 35.1 72% 29 29.84 1011.4
06 06:51 NW 9 0.00 NULL NULL 35.1 27 72% 29 29.82 1010.6
06 05:51 N 7 0.00 NULL NULL 35.1 27 72% 30 29.82 1010.6
06 04:51 Vrbl 7 0.00 NULL NULL 35.1 25 67% 30 29.81 1010.4
06 03:51 N 8 0.00 NULL NULL 36 23 59% 30 29.81 1010.2
06 02:51 NW 7 0.00 NULL NULL 36 25 64% 31 29.81 1010.2
06 01:51 NW 7 0.00 NULL NULL 36 26.1 37 36 67% 31 29.81 1010.3
06 00:51 N 9 0.00 NULL NULL 36 28 73% 30 29.81 1010.3
05 23:51 N 13 G 26 0.00 NULL NULL 37 24.1 59% 30 29.8 1010.1
05 22:51 Vrbl 6 0.00 NULL NULL 37 21.9 54% 33 29.8 1010.0
05 21:51 NW 7 0.00 NULL NULL 37 21.9 54% 32 29.79 1009.7
05 20:51 NW 8 0.00 NULL NULL 36 21 55% 30 29.78 1009.3
05 19:51 NW 12 G 22 0.00 NULL NULL 37 21 39 36 52% 30 29.77 1009.0
05 18:51 NW 13 G 26 0.00 NULL NULL 37 21.9 54% 30 29.77 1008.9
05 17:51 NW 14 G 29 0.00 NULL NULL 37 24.1 59% 29 29.76 1008.7
05 16:51 N 15 G 35 0.00 NULL NULL 36 23 59% 27 29.75 1008.4
05 15:51 N 18 G 33 0.00 NULL NULL 37.9 27 65% 29 29.73 1007.7
05 14:51 NW 15 G 26 0.00 NULL NULL 36 26.1 67% 27 29.73 1007.5
05 13:51 N 21 G 31 0.00 Breezy NULL 37 27 37.9 35.1 67% 27 29.7 1006.8
05 12:51 N 20 G 29 0.00 NULL NULL 37.9 25 60% 29 29.69 1006.1
05 11:51 N 18 G 24 0.00 NULL NULL 37 28.9 73% 28 29.67 1005.5
05 10:51 NW 7 G 22 0.00 NULL NULL 37 26.1 65% 32 29.65 1004.8
05 09:51 N 12 0.00 NULL NULL 36 28 73% 29 29.64 1004.2
05 08:51 N 13 0.00 NULL NULL 36 27 70% 28 29.62 1003.6
05 07:51 N 14 0.00 NULL NULL 36 28 37 35.1 73% 28 29.6 1002.9
05 06:51 N 20 G 26 0.00 NULL NULL 36 28.9 76% 26 29.57 1002.0
05 05:51 N 18 0.00 NULL NULL 36 28 73% 26 29.56 1001.5
05 04:51 N 17 G 28 0.00 NULL NULL 36 28.9 76% 27 29.55 1001.1
05 03:51 N 13 0.00 NULL NULL 36 30 79% 28 29.54 1000.8
05 02:51 N 17 G 28 0.00 NULL NULL 37 28 70% 28 29.54 1000.6
05 01:51 N 18 G 32 0.00 NULL NULL 37 28 48 37 70% 28 29.51 999.8
05 00:51 N 14 G 26 0.00 NULL NULL 37.9 30 73% 30 29.49 998.9
04 23:51 N 13 G 23 0.00 NULL NULL 39 32 76% 32 29.46 998.3
04 22:51 N 20 G 37 0.00 NULL NULL 42.1 30.9 65% 34 29.45 997.6
04 21:51 NW 14 G 32 0.00 NULL NULL 43 30.9 63% 37 29.43 996.9
04 20:51 NW 16 G 31 0.00 NULL NULL 46 28 50% 40 29.4 995.9
04 19:51 NW 20 G 41 0.00 NULL NULL 48 30 55 48 50% 42 29.38 995.1
04 18:51 NW 14 G 32 0.00 NULL NULL 50 32 50% 45 29.36 994.4
04 17:51 NW 15 G 41 0.00 NULL NULL 51.1 33.1 50% 29.35 994.0
04 16:51 Calm 0.00 NULL NULL 51.1 33.1 50% 29.33 993.3
04 15:51 NW 20 G 40 0.00 NULL NULL 53.1 34 48% 29.3 992.3
04 14:51 NW 16 G 46 0.00 NULL NULL 53.1 37 55% 29.28 991.6
04 13:51 NW 13 G 32 0.00 NULL NULL 54 39.9 55.9 46 59% 29.25 990.7 0.05
04 12:51 NW 12 G 38 0.00 NULL NULL 53.1 42.1 66% 29.24 990.1
04 11:51 Vrbl 7 0.00 NULL NULL 46.9 43 86% 44 29.22 989.7 0.03
04 10:51 NW 12 G 28 0.00 NULL NULL 46 43 89% 41 29.23 989.9 0.01 0.02
04 09:51 NW 15 G 29 0.00 NULL NULL 55 35.1 47% 29.18 988.1
04 08:51 SW 8 0.00 NULL NULL 50 34 54% 47 29.18 988.0 0.01
04 07:51 W 12 G 23 0.00 NULL NULL 52 28 52 46 40% 29.2 988.9
04 06:51 SW 13 G 25 0.00 NULL NULL 50 26.1 39% 46 29.23 989.7
04 05:51 SW 10 G 23 0.00 NULL NULL 48.9 25 39% 45 29.27 991.1
04 04:51 SW 13 G 21 0.00 NULL NULL 48.9 24.1 38% 44 29.32 992.7
04 03:51 SW 10 G 20 0.00 NULL NULL 48.9 21.9 35% 45 29.36 994.5
04 02:51 SW 12 G 21 0.00 NULL NULL 48.9 19.9 32% 45 29.4 995.5
04 01:51 SW 9 0.00 NULL NULL 46 23 57.9 46 40% 42 29.43 997.0
04 00:51 Vrbl 3 0.00 NULL NULL 46.9 21 36% 29.46 998.1
03 23:51 W 6 0.00 NULL NULL 52 19 27% 29.5 999.3
03 22:51 W 7 0.00 NULL NULL 52 21 30% 29.52 1000.0
03 21:51 W 7 0.00 NULL NULL 53.1 19 26% 29.53 1000.0
03 20:51 W 8 0.00 NULL NULL 55.9 17.1 22% 29.53 1000.2
03 19:51 NW 8 0.00 NULL NULL 57.9 19.9 59 45 23% 29.54 1000.3
03 18:51 N 13 G 28 0.00 NULL NULL 57.9 23 26% 29.54 1000.5
03 17:51 N 8 G 22 0.00 NULL NULL 50 30.9 48% 47 29.54 1000.5
03 16:51 NW 9 G 23 0.00 NULL NULL 57.9 37.9 48% 29.53 1000.3
03 15:51 N 12 G 26 0.00 NULL NULL 52 39.9 64% 29.54 1000.6
03 14:51 N 12 0.00 NULL NULL 51.1 41 69% 29.56 1001.3
03 13:51 N 18 0.00 NULL NULL 46.9 37.9 52 42.1 71% 40 29.56 1001.5
03 12:51 N 10 0.00 NULL NULL 46 37 71% 42 29.57 1001.7
Date Time (edt) Wind (mph) Vis. (mi.) Weather Sky Cond. Air Dwpt Max. Min. Relative Humidity Wind Chill (°F) Heat Index (°F) altimeter (in) sea level (mb) 1 hr 3 hr 6 hr
6 hour
Temperature (ºF) Pressure Precipitation (in)